Flag for Germany Weather past 2 weeks in Warstein, North Rhine-Westphalia, Germany

Now
37 °F

Clear.


Feels Like: 30 °F
Forecast: 37 / 54 °F
Wind: 10 mph from South

Location: Paderborn / Lippstadt

Current Time: Mar 7, 2015 at 2:43:32 AM

Latest Report: Mar 7, 2015 at 2:20 AM


Visibility: 10 mi

Pressure: 30.51 "Hg

Humidity: 81%

Dew point: 32 °F

Location of WarsteinLocation

Historic Weather in Warstein — Graph

°F

Warstein temperature yesterday

Maximum temperature yesterday: 43 °F (at 1:20 PM)
Minimum temperature yesterday: 32 °F (at 1:50 AM)
Average temperature yesterday: 39 °F

Past Weeks' High & Low Weather Summary

 TemperatureHumidityPressure
High48 °F (Mar 1, 11:50 AM)100% (Feb 20, 1:20 AM)30.60 "Hg (Feb 20, 1:20 AM)
Low28 °F (Feb 20, 1:20 AM)42% (Feb 28, 4:20 PM)29.33 "Hg (Feb 21, 6:50 AM)
Average38 °F85%29.92 "Hg
* Reported Feb 20 1:20 AM — Mar 7 1:20 AM, Warstein, Weather by CustomWeather, © 2015

Note: Actual official high and low records may vary slightly from our data, if they occured in-between our weather recording intervals... More about our weather records

Advertising

Warstein weather history for previous 24 hours

 ConditionsComfort  
Time TempWeatherWind HumidityBarometerVisibility
1:20 AM
Sat, Mar 7
32 °FClear.6 mph93%30.51 "Hg10 mi
12:50 AM36 °FClear.8 mph93%30.54 "Hg10 mi
12:20 AM37 °FClear.9 mph81%30.54 "Hg10 mi
11:50 PM
Fri, Mar 6
37 °FClear.8 mph81%30.54 "Hg10 mi
11:20 PM37 °FClear.9 mph87%30.54 "Hg10 mi
10:50 PM37 °FClear.9 mph87%30.51 "Hg10 mi
10:20 PM39 °FPassing clouds.8 mph81%30.51 "HgN/A
9:50 PM39 °FPassing clouds.8 mph81%30.51 "HgN/A
9:20 PM41 °FPassing clouds.8 mph76%30.54 "HgN/A
8:50 PM41 °FPassing clouds.6 mph76%30.54 "HgN/A
8:20 PM41 °FPassing clouds.6 mph76%30.54 "HgN/A
7:50 PM41 °FPassing clouds.6 mph76%30.54 "HgN/A
7:20 PM41 °FPassing clouds.6 mph81%30.54 "HgN/A
6:50 PM41 °FPassing clouds.5 mph87%30.54 "HgN/A
6:20 PM41 °FPassing clouds.5 mph81%30.54 "HgN/A
5:50 PM43 °FPartly sunny.5 mph71%30.54 "HgN/A
5:20 PM43 °FPartly sunny.6 mph66%30.54 "HgN/A
4:50 PM43 °FPartly sunny.6 mph71%30.54 "HgN/A
4:20 PM43 °FPartly sunny.9 mph76%30.54 "HgN/A
3:50 PM43 °FPartly sunny.12 mph76%30.54 "HgN/A
3:20 PM43 °FPartly sunny.6 mph76%30.54 "HgN/A
2:50 PM43 °FPartly sunny.10 mph76%30.57 "HgN/A
2:20 PM43 °FPartly sunny.9 mph71%30.57 "HgN/A
1:50 PM43 °FPartly sunny.10 mph76%30.54 "HgN/A
1:20 PM43 °FPartly sunny.12 mph76%30.57 "HgN/A
12:50 PM41 °FPartly sunny.8 mph76%30.57 "HgN/A
12:20 PM41 °FPartly sunny.9 mph87%30.60 "HgN/A
11:50 AM39 °FPartly sunny.9 mph93%30.60 "HgN/A
11:20 AM41 °FPartly sunny.10 mph87%30.60 "HgN/A
10:50 AM39 °FPartly sunny.12 mph93%30.57 "HgN/A
10:20 AM39 °FPartly sunny.9 mph93%30.60 "HgN/A
9:50 AM39 °FPartly sunny.9 mph93%30.57 "HgN/A
9:20 AM39 °FPartly sunny.10 mph93%30.57 "HgN/A
8:50 AM37 °FPartly sunny.9 mph100%30.57 "HgN/A
8:20 AM37 °FPartly sunny.9 mph93%30.57 "HgN/A
7:50 AM37 °FPartly sunny.8 mph93%30.57 "HgN/A
7:20 AM37 °FPartly sunny.8 mph93%30.57 "HgN/A
6:20 AM36 °FPassing clouds.9 mph100%30.57 "HgN/A
5:50 AM37 °FPassing clouds.12 mph93%30.57 "HgN/A
5:20 AM37 °FPassing clouds.7 mph93%30.57 "HgN/A
4:50 AM37 °FPassing clouds.7 mph93%30.57 "HgN/A
4:20 AM34 °FPassing clouds.7 mph100%30.60 "HgN/A
3:50 AM36 °FPassing clouds.12 mph100%30.57 "HgN/A
3:20 AM36 °FPassing clouds.9 mph100%30.60 "HgN/A
2:50 AM36 °FClear.9 mph93%30.60 "Hg10 mi
2:20 AM32 °FClear.9 mph100%30.60 "Hg10 mi
Weather by CustomWeather, © 2015

See weather overviewHow to use our weather pages